Wind_Speed
17 17 18 19 19 20 21 22 23 23 23 23 24 24 25 24 24 23 23 22 23 24 25 25 26 26 26 25 25 25 24 24 23 22 21 21 20 19 18 18 18 17 17 17
18 19 20 21 21 21 22 22 23 23 23 24 24 25 25 25 24 24 23 23 24 24 25 26 26 26 25 24 24 24 24 24 23 22 21 21 20 18 17 17 17 16 17 17
19 20 21 21 21 21 22 22 23 23 24 24 24 24 25 25 25 24 24 24 25 25 26 26 26 26 25 24 24 24 23 23 23 23 22 21 20 18 17 17 16 16 17 17
20 21 21 21 21 22 22 23 23 23 24 25 25 25 25 25 25 24 24 25 26 26 26 26 27 26 25 24 24 24 23 23 23 23 21 21 20 19 18 17 17 17 17 17
20 21 22 22 22 23 23 23 24 24 24 24 25 25 25 25 24 24 25 25 26 26 26 26 26 26 25 24 24 24 23 23 23 22 21 20 20 20 20 19 19 18 18 17
21 22 22 23 23 23 24 24 24 24 25 25 25 25 24 24 25 25 26 26 26 26 26 26 26 26 25 24 24 23 22 22 22 21 21 20 21 22 21 19 18 18 17 17
21 22 22 23 23 24 24 24 25 25 25 24 25 25 25 26 26 26 26 26 26 26 26 26 26 26 25 24 24 23 22 22 21 21 21 21 22 22 20 19 18 17 17 16
21 22 23 23 23 23 24 24 25 25 25 25 26 26 26 26 26 26 26 26 26 26 27 26 26 26 25 24 23 22 21 21 21 20 20 21 21 21 20 19 18 17 16 16
23 23 23 24 24 24 25 26 26 26 26 26 26 27 27 27 26 26 26 26 26 26 27 26 26 26 25 24 23 22 21 21 21 21 21 21 20 20 19 18 17 16 16 15
24 24 24 24 25 25 25 26 26 27 27 27 27 27 28 27 26 26 27 27 26 26 27 27 26 25 24 23 23 22 22 22 22 22 21 20 20 19 18 17 17 17 16 14
25 25 25 25 25 25 26 26 27 27 27 28 28 28 29 28 26 26 27 28 27 26 26 26 25 24 24 24 23 23 23 22 21 21 21 20 19 18 18 18 17 17 16 15
26 26 26 26 26 26 26 26 27 27 28 28 28 28 28 27 26 27 27 28 27 26 26 26 25 25 24 24 24 24 23 22 21 21 20 19 18 17 17 17 16 16 15 15
27 27 27 27 27 27 27 27 27 27 27 28 28 27 27 26 26 26 27 27 27 27 27 26 26 25 24 23 23 23 22 21 21 19 18 17 16 16 16 16 16 15 15 14
28 28 28 28 28 28 28 28 28 28 28 28 28 27 27 26 26 27 27 27 27 27 26 26 26 25 24 23 23 22 21 20 19 18 17 16 15 15 15 15 15 15 14 13
29 29 29 28 28 29 29 29 29 29 29 29 29 28 28 28 28 28 28 28 27 27 26 26 26 24 24 23 22 21 20 19 18 17 16 15 15 15 15 15 14 14 14 13
31 30 30 29 29 30 30 30 30 30 30 29 29 29 29 29 29 29 29 28 28 27 26 26 25 24 23 22 21 20 19 18 18 17 16 16 16 16 16 15 15 14 14 13
31 31 31 31 30 30 31 31 31 31 30 29 29 29 29 30 30 30 30 29 29 28 26 26 25 23 22 21 20 20 18 18 17 16 16 15 15 15 15 14 14 13 13 13
32 32 32 32 32 32 31 31 31 31 30 30 30 31 31 31 31 31 31 30 29 28 27 26 24 23 21 20 20 19 18 16 16 15 15 15 14 14 14 14 13 13 13 13
32 32 33 33 33 32 32 31 31 31 31 31 32 32 32 32 32 32 31 31 29 28 27 26 24 22 21 20 19 19 17 16 16 17 16 15 14 14 14 13 13 13 14 14
33 33 32 32 33 33 33 32 32 32 32 32 33 33 33 33 33 32 32 31 29 27 25 24 23 21 20 19 19 19 18 17 17 17 16 15 15 14 14 14 14 14 14 14
33 33 33 33 33 33 34 34 33 33 33 33 34 34 33 33 33 32 31 30 28 27 25 23 21 20 20 19 19 19 19 18 18 17 16 16 15 15 15 15 15 14 14 14
34 34 34 35 35 35 35 35 35 35 34 34 35 35 34 33 32 31 30 28 26 25 23 22 20 19 19 19 18 19 19 18 18 18 17 16 16 16 16 16 15 15 14 14
35 35 35 35 35 35 35 35 35 35 35 35 34 34 33 31 30 28 27 26 25 24 23 21 20 20 20 20 20 20 19 19 18 18 17 17 16 16 16 15 15 15 14 14
37 36 37 37 37 36 35 34 34 34 34 33 33 32 30 28 27 26 26 25 24 23 22 21 21 20 20 20 20 19 19 19 18 17 16 16 16 16 15 15 15 14 14 14
37 37 37 37 36 36 35 35 35 35 33 32 31 29 28 27 26 25 24 24 23 22 21 21 21 20 20 20 20 20 19 19 18 18 17 16 15 15 15 14 14 13 13 13
35 35 35 34 34 35 35 35 34 33 32 30 28 27 26 25 24 23 23 22 22 21 21 21 21 20 20 19 20 20 20 19 18 18 17 16 15 15 15 14 13 12 12 12
34 34 33 33 34 34 33 32 31 30 29 28 27 26 25 25 24 24 23 23 23 22 22 21 20 20 20 20 20 20 20 19 17 17 16 15 14 14 13 12 12 12 12 12
Wind_Direction
287 289 290 292 295 298 299 302 304 306 306 310 313 315 316 315 314 314 314 315 316 318 319 320 321 321 319 317 317 318 319 318 318 316 313 311 310 309 307 306 303 297 293 291
288 291 292 293 296 299 300 301 303 305 307 310 312 314 315 317 317 318 318 317 318 319 321 321 321 320 320 318 319 321 321 320 319 318 316 314 312 311 309 310 305 298 298 295
290 291 292 293 297 298 299 301 303 305 306 308 310 311 313 315 317 318 317 316 318 318 319 320 321 320 319 318 320 320 320 320 319 318 316 316 315 313 306 306 306 302 298 295
290 292 291 297 298 300 301 303 304 305 306 308 309 310 312 314 316 316 315 315 317 318 320 321 323 322 321 320 320 321 321 320 320 319 318 316 315 312 306 304 302 302 300 298
290 293 295 296 299 300 301 302 304 305 306 307 307 309 310 312 314 314 314 315 317 318 319 321 323 323 321 320 320 319 319 319 320 318 317 317 315 313 308 302 301 301 300 297
291 294 297 299 300 301 301 301 304 305 305 305 306 307 309 310 312 313 313 314 315 317 318 320 321 322 321 320 320 319 319 319 320 319 317 317 317 316 312 307 303 302 299 297
289 292 294 298 301 302 300 303 303 304 305 306 307 309 310 311 312 312 312 312 314 315 316 317 318 320 320 318 319 319 319 320 320 320 320 319 319 318 313 309 306 301 299 298
286 289 292 296 300 301 303 302 303 303 304 305 306 308 309 311 311 311 311 311 312 314 315 316 317 319 320 319 319 319 318 318 318 318 319 319 319 318 314 310 307 305 302 298
285 289 292 295 297 299 301 302 303 303 304 305 307 308 309 310 311 311 311 310 311 313 314 316 316 318 318 318 318 317 316 316 317 317 318 318 318 317 315 314 312 307 304 301
284 286 288 291 293 295 298 300 302 302 303 304 305 307 308 310 310 310 310 311 312 313 314 316 316 317 316 316 316 316 315 315 314 315 316 315 315 316 317 316 315 311 307 306
283 285 286 288 291 294 297 300 301 302 303 303 304 305 307 308 309 309 310 312 313 313 315 315 315 315 315 315 314 314 314 314 313 314 315 314 314 315 317 318 316 314 313 311
282 284 286 288 290 293 296 299 301 302 302 303 303 305 306 307 308 310 311 312 313 313 315 316 315 314 314 314 314 314 313 312 312 312 313 313 314 315 316 316 316 318 318 317
281 283 285 287 289 292 294 297 299 300 301 302 304 306 307 308 310 312 313 313 313 313 315 316 317 315 314 314 314 315 315 313 313 314 315 315 315 315 315 316 318 320 320 319
280 282 284 286 288 290 292 294 297 298 299 301 302 304 305 307 309 311 313 313 313 313 314 315 315 314 312 311 311 313 314 315 316 315 315 315 315 316 317 318 318 319 320 318
279 280 282 283 286 288 290 292 294 296 297 299 300 301 303 305 307 309 311 312 312 311 311 312 313 312 310 309 309 311 313 314 316 317 315 314 315 316 317 318 318 318 319 319
278 279 280 281 283 286 288 290 292 293 294 296 298 300 301 304 305 307 308 309 309 309 308 309 310 309 309 309 309 310 310 312 314 315 314 313 315 315 315 316 317 318 320 320
277 277 278 279 281 284 286 288 289 290 292 294 296 298 300 301 303 304 305 306 306 306 306 306 307 307 306 307 308 309 308 310 312 314 314 313 314 314 314 314 314 316 317 319
276 276 277 279 281 282 283 285 287 289 291 293 294 295 297 298 299 301 302 303 304 304 304 303 304 304 303 304 305 306 307 310 311 312 312 311 312 312 312 312 312 313 312 313
276 276 277 278 280 281 282 284 286 288 289 292 293 293 294 295 298 299 300 301 301 301 302 301 301 299 297 299 301 303 302 305 307 307 308 308 310 313 313 313 314 312 309 311
275 277 278 279 280 281 282 283 285 287 288 290 291 292 294 295 297 299 299 299 300 300 300 300 299 295 293 295 298 300 301 302 304 305 303 303 305 306 308 309 311 311 308 309
275 276 277 278 280 281 282 284 285 286 287 288 289 291 292 294 296 297 298 297 296 297 297 297 295 293 291 293 295 298 300 301 301 301 299 299 298 300 301 304 306 308 309 308
275 275 276 278 279 280 281 282 283 285 286 287 288 289 291 291 293 294 295 295 295 294 294 293 292 291 291 291 293 294 297 300 298 297 297 298 297 297 297 298 301 303 305 305
273 275 276 277 278 279 280 281 283 284 285 287 287 288 289 289 290 291 292 293 293 293 292 291 290 290 291 292 293 295 297 298 297 295 295 295 295 295 294 294 296 299 301 301
275 276 277 277 278 278 279 280 282 284 285 286 287 287 287 287 288 289 290 291 290 290 290 290 289 289 290 291 292 293 293 294 294 293 294 293 291 291 292 293 295 297 296 297
274 275 277 278 278 278 279 280 280 281 283 285 285 285 285 286 287 287 288 289 289 288 288 289 288 287 287 287 288 290 291 291 290 290 291 290 289 290 292 292 292 293 293 295
274 274 275 277 277 276 277 278 279 279 281 282 283 283 283 282 282 283 285 286 287 288 288 288 288 287 285 284 285 288 289 289 289 290 288 286 287 286 287 287 287 290 291 294
273 273 273 275 277 277 278 279 278 279 280 281 281 280 279 277 276 279 282 284 285 286 286 286 287 287 285 283 284 285 287 287 289 291 288 284 283 283 282 284 286 286 288 292
Height
5831 5829 5828 5826 5825 5823 5821 5818 5816 5813 5810 5807 5804 5800 5796 5792 5788 5784 5781 5778 5774 5770 5765 5761 5756 5752 5747 5743 5738 5734 5730 5726 5722 5719 5716 5713 5711 5708 5706 5704 5702 5701 5700 5699
5827 5825 5823 5822 5820 5818 5816 5814 5811 5808 5806 5802 5799 5795 5792 5788 5784 5780 5777 5773 5769 5765 5761 5756 5751 5747 5742 5738 5733 5729 5726 5722 5719 5715 5713 5710 5707 5705 5703 5700 5699 5697 5695 5695
5822 5821 5819 5818 5816 5814 5812 5809 5807 5804 5802 5798 5794 5791 5787 5784 5780 5776 5772 5769 5765 5760 5756 5751 5747 5742 5738 5733 5729 5725 5721 5718 5714 5711 5709 5706 5704 5701 5699 5697 5695 5693 5691 5690
5818 5817 5815 5816 5811 5809 5807 5804 5802 5799 5796 5793 5790 5786 5783 5779 5775 5772 5768 5764 5760 5756 5751 5747 5742 5738 5733 5729 5725 5721 5718 5714 5710 5707 5705 5702 5700 5697 5695 5693 5691 5689 5687 5686
5813 5811 5810 5809 5806 5804 5802 5799 5797 5794 5791 5788 5785 5782 5779 5775 5771 5767 5763 5759 5755 5751 5747 5742 5738 5733 5729 5725 5721 5717 5714 5710 5707 5704 5701 5698 5696 5693 5691 5689 5686 5684 5682 5681
5808 5806 5805 5805 5802 5799 5797 5794 5792 5788 5785 5783 5780 5777 5775 5770 5766 5762 5758 5754 5750 5746 5742 5738 5734 5730 5725 5721 5717 5714 5710 5707 5703 5700 5697 5694 5691 5688 5686 5683 5681 5679 5677 5675
5803 5802 5800 5799 5796 5794 5793 5790 5786 5783 5780 5777 5774 5772 5769 5764 5761 5757 5753 5749 5746 5742 5738 5734 5730 5725 5721 5717 5713 5709 5706 5703 5699 5696 5693 5690 5687 5684 5681 5678 5676 5674 5672 5670
5798 5797 5797 5793 5791 5789 5787 5783 5780 5778 5775 5772 5769 5766 5763 5759 5756 5752 5748 5745 5741 5737 5733 5729 5725 5721 5717 5713 5709 5705 5702 5699 5696 5692 5689 5686 5683 5680 5677 5674 5671 5669 5667 5665
5793 5793 5790 5787 5785 5783 5780 5778 5775 5772 5770 5767 5764 5761 5757 5754 5750 5747 5743 5739 5736 5732 5728 5724 5720 5716 5712 5709 5705 5701 5698 5695 5692 5689 5685 5682 5679 5676 5673 5670 5667 5665 5663 5661
5787 5786 5784 5782 5780 5777 5775 5772 5770 5767 5764 5761 5758 5755 5752 5749 5745 5741 5738 5734 5730 5727 5723 5719 5715 5711 5707 5704 5701 5697 5694 5690 5687 5684 5681 5678 5675 5672 5669 5666 5664 5661 5659 5657
5780 5779 5777 5776 5774 5771 5769 5766 5764 5761 5758 5756 5753 5750 5747 5743 5739 5736 5732 5729 5725 5721 5718 5714 5710 5706 5703 5699 5696 5692 5689 5686 5683 5679 5676 5673 5670 5668 5665 5663 5660 5658 5656 5654
5774 5773 5771 5769 5767 5765 5763 5760 5758 5755 5753 5750 5747 5744 5741 5737 5734 5730 5727 5723 5720 5716 5713 5709 5705 5701 5698 5694 5691 5687 5684 5681 5678 5675 5672 5669 5666 5664 5661 5659 5657 5654 5652 5650
5766 5765 5764 5762 5760 5758 5756 5754 5752 5749 5746 5744 5741 5738 5735 5732 5728 5725 5721 5718 5714 5711 5707 5704 5700 5697 5693 5690 5686 5683 5679 5676 5673 5670 5668 5665 5663 5661 5659 5656 5653 5651 5649 5647
5758 5758 5756 5755 5753 5751 5749 5747 5745 5743 5740 5737 5735 5732 5729 5726 5723 5720 5716 5713 5709 5706 5702 5699 5695 5692 5688 5685 5682 5678 5675 5672 5669 5667 5664 5662 5660 5658 5655 5653 5651 5649 5646 5644
5751 5750 5748 5747 5745 5744 5742 5740 5738 5736 5733 5731 5728 5725 5723 5720 5717 5714 5711 5707 5704 5700 5697 5693 5690 5687 5683 5680 5677 5674 5671 5669 5666 5663 5661 5659 5657 5655 5652 5650 5648 5646 5644 5641
5742 5741 5740 5739 5738 5736 5734 5733 5731 5729 5726 5724 5721 5719 5716 5713 5710 5707 5704 5701 5698 5695 5691 5688 5685 5681 5678 5675 5672 5670 5667 5665 5662 5660 5657 5655 5653 5651 5649 5647 5645 5643 5641 5639
5734 5733 5732 5730 5729 5728 5726 5725 5723 5720 5718 5716 5714 5711 5709 5706 5703 5700 5697 5694 5691 5688 5684 5681 5679 5676 5673 5670 5668 5665 5663 5660 5658 5656 5654 5651 5650 5648 5646 5644 5642 5640 5638 5636
5724 5723 5722 5722 5721 5719 5717 5716 5714 5712 5710 5708 5706 5703 5701 5698 5695 5692 5689 5687 5683 5680 5678 5675 5672 5670 5667 5665 5663 5660 5658 5656 5654 5652 5650 5648 5646 5644 5642 5641 5639 5637 5635 5633
5715 5714 5713 5712 5711 5710 5708 5707 5705 5703 5701 5699 5697 5695 5692 5689 5687 5684 5681 5678 5676 5673 5670 5667 5665 5663 5661 5659 5657 5655 5654 5652 5650 5648 5646 5644 5643 5641 5639 5637 5635 5634 5632 5630
5705 5705 5704 5703 5702 5700 5699 5697 5696 5694 5692 5690 5688 5686 5683 5681 5678 5675 5672 5670 5667 5665 5662 5660 5658 5657 5655 5654 5652 5650 5648 5647 5645 5643 5641 5640 5638 5637 5635 5634 5632 5630 5628 5627
5695 5694 5694 5693 5692 5690 5689 5687 5686 5684 5682 5680 5678 5676 5674 5672 5669 5666 5663 5661 5659 5657 5655 5653 5652 5650 5649 5648 5646 5644 5643 5641 5639 5637 5636 5635 5633 5632 5631 5630 5628 5627 5625 5623
5684 5684 5683 5682 5681 5680 5679 5677 5676 5674 5672 5670 5668 5666 5664 5662 5660 5657 5655 5653 5651 5649 5647 5646 5645 5644 5643 5641 5640 5638 5637 5635 5633 5632 5630 5629 5628 5627 5626 5625 5624 5622 5621 5619
5673 5673 5672 5671 5670 5669 5668 5667 5665 5663 5662 5660 5658 5656 5654 5652 5650 5648 5647 5645 5643 5642 5640 5639 5638 5637 5636 5635 5634 5632 5631 5629 5628 5626 5625 5624 5622 5621 5621 5620 5619 5617 5616 5615
5662 5661 5660 5660 5659 5658 5657 5656 5654 5652 5651 5649 5648 5646 5644 5643 5641 5640 5638 5637 5636 5635 5633 5632 5631 5630 5629 5628 5627 5626 5625 5623 5622 5621 5619 5618 5617 5616 5615 5614 5613 5612 5612 5611
5650 5649 5649 5648 5647 5646 5646 5645 5644 5642 5641 5639 5638 5637 5635 5634 5633 5632 5631 5630 5629 5627 5626 5625 5624 5623 5622 5621 5620 5619 5618 5617 5616 5615 5613 5612 5612 5611 5610 5609 5609 5608 5607 5606
5638 5637 5637 5636 5635 5635 5634 5633 5632 5631 5630 5630 5629 5628 5627 5626 5624 5624 5623 5622 5621 5620 5619 5618 5617 5616 5615 5615 5614 5613 5612 5611 5610 5609 5608 5607 5606 5606 5605 5604 5604 5603 5603 5602
5627 5626 5625 5625 5624 5624 5623 5622 5622 5621 5620 5620 5619 5619 5618 5617 5617 5616 5616 5615 5614 5613 5612 5611 5610 5609 5609 5608 5607 5606 5605 5605 5604 5603 5602 5601 5601 5600 5600 5599 5599 5599 5598 5598